sat.trackr.live / text

‹ back to catalog

ONEWEB-0573

NORAD 55152 · 2023-004N

PAYLOAD ACTIVE UNKNOWN

§ Identity

Operator
Country
UK
Launch date
2023-01-10
Launch site
AFETR
Launch vehicle
Mass (kg)
RCS (m²)

Purposes: comms

External: N2YO · Heavens-Above · Gunter

§ Orbital elements

Epoch: 2026-09-20T02:41:48.140736Z

Period
109.20 min
Inclination
87.9156°
Eccentricity
0.0001090
Mean motion
13.18687473 rev/d
Perigee alt
1,188.9 km
Apogee alt
1,190.6 km
Semi-major
7,567.9 km
B*
1.0494e-4
RAAN
316.6034°
Arg perigee
101.8900°
Mean anomaly
258.2354°
Rev number
18,220

§ Raw data

ONEWEB-05731 55152U 23004N   26263.11236274  .00000054  00000+0  10494-3 0  99912 55152  87.9156 316.6034 0001090 101.8900 258.2354 13.18687473182208

JSON: /api/v1/satellites/55152 · /tle

For live sub-satellite position, see the globe view (requires WebGL).

§ Visibility from observer

Set your observer location to see the next 7 days of passes ≥ 10°. The values pass through the URL so the page stays shareable.

No JS? Fill the form by hand. The geolocation button needs JavaScript.